SCP
0 0 0 0 0 0 0 0 0 0 0 0 0 0 0 0 0 0 0 0 0 0 0 0 0 0 0 0 0 0 0 0 0 0 0 0 0 0 0 0 0 0 0
0 0 0 0 0 0 0 0 0 0 0 0 0 0 0 0 0 0 0 0 0 0 0 0 0 0 0 0 0 0 0 0 0 0 0 0 0 0 0 0 0 0 0
0 0 0 0 0 0 0 0 0 0 0 0 0 0 0 0 0 0 0 0 0 0 0 0 0 0 0 0 0 0 0 0 0 0 0 0 0 0 0 0 0 0 0
0 0 0 0 0 0 0 0 0 0 0 0 0 0 0 0 0 0 0 0 0 0 0 0 0 0 0 0 0 0 0 0 0 0 0 0 0 0 0 0 0 0 0
0 0 0 0 0 0 0 0 0 0 0 0 0 0 0 0 0 0 0 0 0 0 0 0 0 0 0 0 0 0 0 0 0 0 0 0 0 0 0 0 0 0 0
0 0 0 0 0 0 0 0 0 0 0 0 0 0 0 0 0 0 0 0 0 0 0 0 0 0 0 0 0 0 0 0 0 0 0 0 0 0 0 0 0 0 0
0 0 0 0 0 0 0 0 0 0 0 0 0 0 0 0 0 0 0 0 0 0 0 0 0 0 0 0 0 0 0 0 0 0 0 0 0 0 0 0 0 0 0
0 0 0 0 0 0 0 0 0 0 0 0 0 0 0 0 0 0 0 0 0 0 0 0 0 0 0 0 0 0 0 0 0 0 0 0 0 0 0 0 0 0 0
0 0 0 0 0 0 0 0 0 0 0 0 0 0 0 0 0 0 0 0 0 0 0 0 0 0 0 0 0 0 0 0 0 0 0 0 0 0 0 0 0 0 0
0 0 0 0 0 0 0 0 0 0 0 0 0 0 0 0 0 0 0 0 0 0 0 0 0 0 0 0 0 0 0 0 0 0 0 0 0 0 0 0 0 0 0
0 0 0 0 0 0 0 0 0 0 0 0 0 0 0 0 0 0 0 0 0 0 0 0 0 0 0 0 0 0 0 0 0 0 0 0 0 0 0 0 0 0 0
0 0 0 0 0 0 0 0 0 0 0 0 0 0 0 0 0 0 0 0 0 0 0 0 0 0 0 0 0 0 0 0 0 0 0 0 0 0 0 0 0 0 0
0 0 0 0 0 0 0 0 0 0 0 0 0 0 0 0 0 0 0 0 0 0 0 0 0 0 0 0 0 0 0 0 0 0 0 0 0 0 0 0 0 0 0
0 0 0 0 0 0 0 0 0 0 0 0 0 0 0 0 0 0 0 0 0 0 0 0 0 0 0 0 0 0 0 0 0 0 0 0 0 0 0 0 0 0 0
0 0 0 0 0 0 0 0 0 0 0 0 0 0 0 0 0 0 0 0 0 0 0 0 0 0 0 0 0 0 0 0 0 0 0 0 0 0 0 0 0 0 0
0 0 0 0 0 0 0 0 0 0 0 0 0 0 0 0 0 0 0 0 0 0 0 0 0 0 0 0 0 0 0 0 0 0 0 0 0 0 0 0 0 0 0
0 0 0 0 0 0 0 0 0 0 0 0 0 0 0 0 0 0 0 0 0 0 0 0 0 0 0 0 0 0 0 0 0 0 0 0 0 0 0 0 0 0 0
0 0 0 0 0 0 0 0 0 0 0 0 0 0 0 0 0 0 0 0 0 0 0 0 0 0 0 0 0 0 0 0 0 0 0 0 0 0 0 0 0 0 0
0 0 0 0 0 0 0 0 0 0 0 0 0 0 0 0 0 0 0 0 0 0 0 0 0 0 0 0 0 0 0 0 0 0 0 0 0 0 0 0 0 0 0
0 0 0 0 0 0 0 0 0 0 0 0 0 0 0 0 0 0 0 0 0 0 0 0 0 0 0 0 0 0 0 0 0 0 0 0 0 0 0 0 0 0 0
0 0 0 0 0 0 0 0 0 0 0 0 0 0 0 0 0 0 0 0 0 0 0 0 0 0 0 0 0 0 0 0 0 0 0 0 0 0 0 0 0 0 0
0 0 0 0 0 0 0 0 0 0 0 0 0 0 0 0 0 0 0 0 0 0 0 0 0 0 0 0 0 0 0 0 0 0 0 0 0 0 0 0 0 0 0
0 0 0 0 0 0 0 0 0 0 0 0 0 0 0 0 0 0 0 0 0 0 0 0 0 0 0 0 0 0 0 0 0 0 0 0 0 0 0 0 0 0 0
0 0 0 0 0 0 0 0 0 0 0 0 0 0 0 0 0 0 0 0 0 0 0 0 0 0 0 0 0 0 0 0 0 0 0 0 0 0 0 0 0 0 0
0 0 0 0 0 0 0 0 0 0 0 0 0 0 0 0 0 0 0 0 0 0 0 0 0 0 0 0 0 0 0 0 0 0 0 0 0 0 0 0 0 0 0
0 0 0 0 0 0 0 0 0 0 0 0 0 0 0 0 0 0 0 0 0 0 0 0 0 0 0 0 0 0 0 0 0 0 0 0 0 0 0 0 0 0 0
Wind_Speed
2 2 2 2 2 2 2 2 2 2 3 3 3 4 4 4 4 4 3 7 9 10 10 10 11 11 11 10 9 9 9 9 9 10 10 10 10 9 9 9 9 9 9
1 2 2 2 2 2 2 2 2 2 2 2 3 3 4 4 4 4 4 5 8 9 10 10 11 11 11 11 10 10 9 9 9 10 10 10 10 10 10 10 9 9 9
2 2 2 2 2 2 2 1 2 1 2 2 2 3 3 4 3 4 4 3 3 6 9 10 10 11 12 12 11 11 10 10 10 10 11 11 11 10 10 10 10 9 9
2 2 1 2 2 1 1 1 1 1 2 2 2 2 2 2 3 4 3 3 3 3 5 8 9 10 11 12 12 12 11 11 10 11 11 11 11 11 10 10 10 10 9
2 1 1 2 2 1 1 1 1 1 2 2 2 2 2 2 3 3 3 4 3 3 3 5 8 10 10 11 12 12 12 12 12 12 11 11 11 11 11 10 10 10 9
3 2 1 2 2 1 1 1 1 1 1 1 2 2 2 2 2 2 3 3 3 3 3 3 3 6 10 11 11 12 13 13 13 13 13 12 12 12 11 11 11 11 10
3 2 2 2 1 1 1 1 0 1 1 0 0 1 1 2 2 2 2 2 3 3 3 4 3 3 4 10 11 12 13 14 14 14 14 13 13 12 12 12 11 11 11
3 2 1 1 1 1 1 1 0 0 1 1 1 1 1 1 2 2 2 3 3 2 3 4 3 4 4 3 6 12 12 12 14 15 15 14 14 13 13 12 12 12 12
3 3 2 1 1 0 1 1 1 1 1 1 1 2 2 2 1 1 1 2 2 2 2 3 4 5 5 4 5 9 12 12 13 15 16 15 15 15 14 14 13 13 12
3 3 2 2 1 1 1 1 1 1 1 1 1 1 1 1 1 1 1 1 1 2 3 3 4 5 5 5 6 9 12 13 14 16 16 16 16 16 16 15 15 14 13
4 3 3 2 2 1 1 1 1 1 1 1 1 1 0 0 1 1 1 1 1 1 2 3 3 3 5 5 5 8 11 13 14 16 16 17 17 17 17 16 16 16 15
3 4 3 2 2 1 2 1 1 1 1 2 1 2 2 1 1 2 1 1 2 2 2 2 3 3 3 4 6 9 11 12 13 14 15 15 16 16 17 17 17 16 16
3 4 4 3 2 2 2 1 1 1 1 1 2 2 2 2 2 2 2 1 1 2 1 1 2 3 3 3 4 7 9 11 13 13 14 13 13 14 16 17 18 17 17
3 4 4 3 3 2 2 1 1 1 1 1 2 2 1 2 2 2 2 2 1 1 1 3 1 2 2 2 3 5 5 9 11 12 12 13 13 13 14 14 16 16 16
3 4 4 4 3 2 2 1 1 1 1 1 1 1 1 1 2 2 2 3 2 2 2 2 1 1 1 2 3 3 4 7 9 11 11 12 13 13 13 13 13 13 13
4 4 5 4 4 3 2 2 1 1 1 1 1 0 1 1 1 1 2 2 3 3 2 2 2 2 2 2 3 3 5 7 8 10 11 12 12 12 12 12 12 12 12
4 4 4 4 4 4 3 2 2 2 2 2 2 1 1 1 1 1 1 1 2 2 3 2 2 1 2 2 2 2 3 3 4 8 10 11 11 11 12 12 12 12 12
4 4 4 4 4 4 3 3 3 3 2 2 2 2 2 1 1 1 1 1 2 2 2 3 2 1 2 2 2 3 3 3 3 6 8 9 10 11 11 12 12 12 12
4 4 4 4 4 4 3 3 2 3 2 2 2 2 2 2 1 1 1 1 1 2 2 2 3 2 2 2 2 2 2 2 3 4 6 8 9 10 10 11 11 11 11
3 4 3 3 3 3 3 3 2 3 3 3 2 2 2 2 2 2 2 2 2 2 2 2 3 2 2 2 2 2 2 2 2 3 3 4 6 9 10 10 10 11 11
3 3 3 4 4 3 2 2 2 2 3 3 3 3 3 3 4 3 2 2 2 2 2 2 2 2 2 2 2 2 2 2 2 2 2 3 3 4 5 7 10 11 11
3 3 3 4 4 4 6 6 3 2 2 3 3 4 4 4 5 5 5 4 3 2 2 2 3 3 4 3 3 2 2 2 2 2 3 3 3 4 4 4 7 10 11
3 3 3 3 4 5 7 6 5 2 2 2 3 3 4 5 6 4 4 5 4 4 4 3 4 4 4 3 3 4 3 3 3 2 2 3 3 4 3 4 8 10 10
3 3 3 3 4 5 7 5 4 2 2 2 2 2 3 4 4 4 3 3 3 3 3 3 3 4 4 4 4 4 3 2 1 1 2 3 2 3 2 3 7 9 10
3 3 3 3 3 5 7 5 3 1 1 3 3 2 3 3 6 6 3 3 4 4 4 4 4 4 6 6 4 2 2 2 2 2 2 2 2 2 2 3 4 8 9
3 3 3 3 3 4 7 6 3 0 1 2 3 3 4 5 6 6 3 3 4 5 5 5 4 4 4 4 3 3 3 3 2 2 3 3 2 2 2 2 2 3 5
Wind_Direction
313 307 299 293 284 267 263 266 255 257 250 245 239 234 232 230 229 225 235 245 247 244 236 225 212 205 199 194 191 188 183 181 176 175 172 168 163 160 158 156 155 152 152
307 314 312 306 291 271 256 251 245 240 245 240 245 236 233 229 229 228 226 243 248 244 235 228 215 206 202 199 194 191 186 185 182 179 177 172 168 167 165 163 160 158 157
315 309 303 299 294 285 267 254 252 232 239 244 249 247 235 232 230 230 227 225 241 243 232 225 218 209 206 204 199 195 191 188 184 183 181 177 175 174 171 169 166 163 161
322 309 297 288 292 293 276 253 235 234 234 237 243 248 240 238 237 230 223 220 221 229 228 224 215 208 209 208 204 199 196 192 189 187 185 182 180 179 177 177 173 170 169
325 307 293 294 301 297 278 270 224 219 237 237 235 237 243 245 245 239 226 219 215 212 210 222 217 209 208 211 210 205 201 197 196 194 190 186 185 183 183 183 180 178 178
329 319 301 313 320 307 296 272 239 235 239 235 249 251 241 244 243 239 233 222 211 209 207 209 210 215 212 210 212 212 208 203 201 201 197 194 192 189 188 189 189 188 186
337 328 318 323 329 307 292 287 233 239 259 200 141 290 276 250 245 243 233 221 217 207 198 202 198 201 210 214 211 212 213 210 207 206 204 200 197 195 195 196 196 197 197
337 334 325 312 312 306 332 324 182 182 231 179 155 144 302 319 279 251 231 222 224 207 209 214 200 205 203 198 209 211 212 213 213 210 208 206 201 199 200 202 202 204 205
335 330 328 319 319 319 274 276 238 187 218 238 185 159 165 223 284 305 259 240 216 216 225 214 210 209 208 202 203 213 211 211 215 216 214 212 207 204 204 206 207 208 209
337 336 333 334 332 326 297 281 229 213 183 213 256 228 198 169 168 321 330 309 243 227 229 228 219 210 207 204 208 207 210 210 215 220 219 217 215 211 208 209 210 212 212
338 339 333 334 329 311 290 288 295 235 194 196 196 199 204 180 171 173 284 314 306 248 230 229 223 213 208 207 210 213 211 212 214 219 221 219 219 217 214 213 213 214 215
334 344 342 339 325 309 295 288 279 244 212 208 210 194 178 184 187 181 216 259 277 276 252 236 225 217 210 206 219 219 215 214 215 218 220 220 220 219 216 216 216 217 218
332 332 339 335 324 312 303 301 302 290 237 214 220 220 204 207 190 181 191 219 260 286 289 264 233 220 219 205 220 225 223 217 216 218 217 218 219 221 220 219 219 219 220
310 320 334 336 331 332 336 334 328 298 272 249 244 231 213 217 201 199 189 178 223 279 279 267 274 234 227 208 221 226 231 222 216 217 217 215 215 218 220 220 221 221 222
327 344 347 349 351 351 353 4 355 325 327 299 270 250 225 224 210 217 209 195 188 217 251 254 263 272 247 232 229 224 229 228 221 219 220 217 215 216 218 218 219 221 222
345 352 355 355 358 3 8 16 360 351 6 338 309 288 257 250 242 221 213 217 211 204 236 244 243 256 268 259 234 227 230 231 227 223 222 220 217 215 214 215 216 218 221
347 352 349 353 359 3 6 14 5 9 10 353 351 351 307 268 250 244 213 209 219 212 239 261 250 261 257 259 263 241 237 231 228 222 218 217 216 215 213 214 216 217 218
346 348 349 356 358 2 4 9 2 4 3 353 347 351 338 345 337 272 224 221 225 220 223 256 273 261 252 256 258 250 245 239 230 225 221 218 216 216 215 216 215 216 217
345 349 355 356 353 353 356 1 6 4 356 341 336 342 331 340 330 318 280 248 243 239 224 239 265 257 258 259 258 255 242 242 243 236 224 219 218 218 217 218 217 215 215
337 338 341 340 340 343 344 349 2 3 356 348 340 327 314 300 286 289 286 266 250 246 237 241 252 256 254 257 238 239 249 233 245 242 229 217 216 219 218 217 217 217 215
327 326 336 339 338 334 331 345 347 357 359 355 349 337 319 314 305 289 273 257 243 239 244 250 259 259 250 238 235 224 235 245 246 224 221 220 211 219 218 221 220 218 214
320 330 332 330 333 330 339 346 352 359 357 354 344 339 337 346 347 338 322 308 279 252 242 246 258 253 254 243 242 232 218 223 249 214 202 225 201 218 220 215 215 214 212
310 316 316 320 316 314 330 340 355 10 357 346 338 340 344 346 350 341 338 343 340 316 272 250 253 254 252 242 233 236 224 222 233 219 194 234 211 224 222 220 214 211 210
288 293 300 305 305 311 327 334 348 12 0 342 335 328 330 331 334 343 348 348 338 326 299 271 256 260 259 251 240 237 226 221 247 240 193 224 216 226 225 222 219 215 212
279 280 284 298 302 307 324 329 340 358 341 328 326 328 327 327 337 356 1 346 335 324 316 299 280 285 285 271 242 211 201 207 242 236 199 203 212 223 238 239 226 215 213
266 282 287 285 283 292 311 321 331 186 312 314 324 328 331 334 337 350 350 334 327 318 323 325 323 321 315 304 271 223 208 212 226 238 203 191 196 182 246 244 227 214 214